Vertical_Velocity
3 1 1 3 5 5 18 4 -1 8 6 37 41 26 -57 -9 -11 -12 27 12 -5 -5 -2 -1 2 -8 5 -11 5 -18 -15 -7 2 -15 -1 -3 2 -6 -2 5 -8 -15 5 -40
-4 -1 0 2 4 -1 7 -9 4 1 12 3 11 2 -12 -9 6 6 -15 -2 -15 -6 5 14 5 -1 12 -1 -0 -10 -13 -3 11 24 12 8 1 -7 6 -4 5 -7 8 -11
-2 -3 -1 4 1 4 2 18 12 -4 5 44 10 5 3 -2 1 5 -13 -12 8 18 -14 22 -8 29 -6 -11 4 14 14 3 -8 -23 -28 -10 4 -3 -6 3 9 -12 -20 -12
1 -2 -2 3 0 4 5 4 -8 -13 -21 -15 19 19 0 -5 13 4 5 6 20 -16 4 6 -0 15 10 2 -0 6 3 6 2 -2 11 -8 9 -5 -2 4 -11 2 -20 -18
4 3 1 2 5 15 3 2 2 -2 6 7 10 10 -8 6 -5 -20 -3 -19 -16 1 2 -11 -11 -1 1 -13 8 3 1 2 3 -3 -3 10 -8 2 4 -3 -4 5 8 -25
2 -2 -0 3 8 10 -15 11 4 -1 17 -2 17 -0 -27 -23 18 12 -0 -33 -3 3 -22 -7 10 -16 17 -5 -9 1 7 5 1 -9 1 5 9 -17 -10 5 4 -1 -3 -26
5 1 0 4 6 -12 11 -17 10 8 -25 19 3 -9 11 9 -20 -20 -9 6 -1 29 -5 9 13 9 -4 -7 -12 -7 -11 -7 2 -9 11 3 -54 1 -2 -12 -8 3 -3 -9
5 -2 2 -1 1 7 -6 10 -8 -1 -9 -4 15 -10 13 12 12 20 11 17 -15 -0 -1 11 10 21 17 17 0 1 -11 19 6 -5 -3 -14 -4 2 -4 5 -23 8 -13 -7
23 1 4 3 3 3 4 4 -1 -8 -8 -28 1 13 7 -12 39 52 -16 49 59 1 1 13 -2 4 -11 5 1 21 21 21 7 3 0 -5 -37 3 4 -1 -40 20 -12 -12
4 5 -3 0 -1 4 1 -10 -11 17 -7 8 13 -0 -3 1 -4 8 8 0 18 47 -11 -0 -1 -5 -5 -1 -5 -10 6 4 -6 5 -2 -10 11 -6 3 4 -19 -3 -3 -0
4 4 8 8 5 3 -4 -8 -7 0 -5 4 -5 9 -2 9 11 -12 -4 31 16 34 8 12 -0 -0 -13 5 -7 -19 -3 -3 -3 15 5 -10 -10 4 1 15 -1 -11 -6 -4
-2 8 3 8 -1 1 13 -5 -3 29 -1 -9 -8 1 5 21 13 42 7 25 -6 -2 6 3 -1 -3 0 -14 -2 6 2 -30 -27 -15 -19 -5 -0 11 -3 -16 13 -11 -4 -3
1 -0 1 -1 2 0 -4 -3 6 -2 -3 -1 -7 -4 -5 24 -4 -5 -1 -11 -17 3 1 6 5 -5 -3 -4 -13 10 -8 3 -6 1 -17 -8 5 -10 -0 2 6 -0 -3 -5
-4 1 -1 5 15 15 12 -3 -2 10 4 6 -8 8 41 -6 10 15 10 10 4 6 -2 -2 1 0 -4 -4 -20 14 31 0 -1 -4 -1 -4 10 5 2 -1 -3 2 0 -4
17 0 8 7 15 4 4 13 -0 -2 3 -9 -8 1 3 3 23 18 23 14 3 1 -1 1 3 3 5 -7 3 -4 -3 -4 -10 -7 3 1 5 -6 -1 5 -0 -3 -5 -1
11 27 3 24 18 12 -1 4 11 21 -4 13 5 -5 4 3 16 33 18 -9 -5 -0 9 6 -3 -14 9 0 -5 -3 3 -3 -4 -10 3 3 -6 7 -1 1 -3 -1 -1 -1
-11 3 29 19 40 7 5 -10 -9 5 -6 15 3 1 2 2 -2 2 0 1 -7 -3 -4 -1 4 11 10 6 -3 -4 -4 -2 -4 -7 -0 -4 0 2 0 0 1 -4 -4 -3
-2 -11 -12 -1 2 13 9 10 9 12 20 6 1 2 4 1 5 3 5 -2 6 5 4 4 -1 0 -1 -4 -5 2 -0 -3 -2 2 1 -3 -5 -1 -2 -2 -2 -2 -2 -1
5 4 6 -6 -1 15 17 15 10 3 -6 -3 -1 0 -2 9 6 7 6 7 1 3 1 2 0 1 -1 5 -2 0 0 5 -0 -3 -0 -1 -1 -3 -3 -4 -3 -4 -2 -3
6 5 11 11 2 -3 -2 4 4 18 17 4 2 7 -5 3 -1 1 -7 2 -3 -3 -1 -4 -1 2 -5 4 -0 -7 -3 1 1 -1 -0 -2 -3 -3 -3 -2 -2 -2 -3 -4
7 5 -1 2 4 4 5 6 1 2 -4 5 2 3 -8 5 -10 -4 1 1 -2 -4 -10 -7 -5 3 -3 -4 -2 -1 -1 -0 -1 -3 -4 -3 -5 -3 0 1 -2 -4 -3 -2
1 0 1 -0 -5 -3 -2 -2 -3 -1 -1 4 2 4 4 -6 -8 -1 -2 2 -1 7 -0 -2 2 0 -6 -2 -3 -1 -1 -2 -5 -4 -1 -0 0 -2 -1 -0 -0 -1 -1 -4
-2 -1 -2 -3 -2 2 1 -0 -3 -1 -1 1 -1 -4 -5 1 -0 1 -0 1 1 -2 -1 -0 9 -4 -4 -2 -2 -2 -1 -1 -1 1 -1 -1 -0 -2 -0 -1 -1 1 -2 -1
-2 -2 -3 -2 -4 -6 -3 -3 -4 -0 -3 0 -2 -1 2 2 -1 -1 -1 -2 -1 3 -0 -1 -3 -2 1 -1 1 -0 -0 -0 -1 -1 -0 -1 -1 -1 -2 0 -1 1 -3 -2
-0 -0 -3 -4 -1 1 -1 -1 -0 2 5 1 2 0 0 -3 -3 -3 -2 -1 -1 -2 -1 -1 -3 -3 -2 -1 -2 -0 -1 -2 -1 -1 -1 1 -2 -2 -1 -3 -2 -4 -0 3
-1 -1 -2 -2 -2 -3 -2 0 1 2 5 3 1 2 -0 -0 -0 2 -0 4 0 -4 6 -1 -2 -0 1 2 1 1 -1 -1 -0 -1 0 -3 -4 2 2 1 -1 -1 -3 1
-1 -2 -0 -1 3 -2 -4 -4 -2 -2 -0 -2 -1 -3 4 -1 3 1 -1 -4 -3 -4 -3 -3 -2 -1 -1 -1 0 0 1 4 0 -5 -7 3 3 -1 -2 -1 -0 -3 -1 -2
Height
2838 2850 2860 2870 2881 2892 2901 2909 2910 2926 2935 2937 2933 2938 2950 2964 2977 2984 2991 2996 3003 3006 3010 3015 3019 3020 3028 3026 3038 3043 3055 3062 3064 3066 3071 3074 3077 3080 3084 3084 3085 3083 3085 3073
2835 2845 2854 2864 2874 2883 2893 2898 2905 2917 2924 2918 2926 2936 2943 2955 2971 2975 2982 2986 2994 3000 3004 3011 3013 3018 3023 3024 3031 3036 3047 3049 3058 3062 3067 3068 3068 3073 3076 3080 3081 3073 3078 3070
2832 2841 2849 2858 2868 2878 2887 2895 2896 2904 2908 2908 2922 2926 2932 2944 2961 2969 2976 2982 2991 2996 3000 3003 3008 3013 3014 3019 3028 3034 3041 3042 3043 3045 3051 3057 3061 3064 3068 3072 3071 3070 3061 3071
2829 2836 2844 2852 2862 2871 2879 2883 2883 2893 2895 2900 2908 2920 2928 2936 2947 2961 2969 2976 2981 2985 2992 2998 3001 3006 3010 3014 3022 3029 3034 3036 3039 3043 3047 3050 3053 3057 3060 3060 3059 3066 3056 3064
2823 2830 2838 2846 2855 2865 2869 2874 2878 2891 2894 2901 2905 2907 2918 2926 2934 2946 2956 2968 2975 2981 2983 2985 2991 2999 3003 3007 3014 3020 3026 3031 3034 3038 3042 3045 3048 3048 3051 3055 3057 3057 3057 3053
2816 2824 2832 2840 2849 2855 2859 2868 2877 2884 2883 2892 2895 2898 2907 2916 2930 2936 2947 2959 2971 2975 2980 2987 2993 2993 2997 3002 3007 3013 3020 3024 3029 3031 3037 3041 3041 3036 3045 3047 3048 3051 3049 3045
2810 2819 2827 2834 2842 2849 2856 2862 2872 2877 2880 2884 2890 2894 2904 2910 2919 2930 2938 2952 2960 2975 2974 2980 2985 2989 2992 2998 3003 3010 3014 3020 3028 3028 3030 3033 3021 3032 3037 3039 3040 3043 3044 3043
2805 2814 2822 2829 2837 2844 2851 2859 2866 2872 2876 2885 2886 2894 2897 2908 2919 2928 2933 2942 2955 2962 2969 2973 2976 2982 2987 2989 2998 3003 3010 3017 3018 3020 3024 3024 3022 3024 3026 3029 3028 3033 3036 3036
2800 2810 2817 2824 2831 2839 2847 2854 2865 2871 2877 2878 2879 2886 2892 2898 2902 2916 2927 2941 2949 2949 2957 2955 2958 2963 2976 2985 2989 2993 3003 3008 3011 3013 3017 3015 3009 3019 3021 3023 3018 3025 3026 3026
2801 2807 2812 2820 2827 2834 2841 2849 2861 2866 2872 2876 2877 2882 2889 2896 2905 2907 2915 2922 2931 2930 2941 2949 2954 2961 2970 2974 2981 2988 2992 2997 2999 3002 3009 3007 3009 3008 3013 3016 3015 3014 3016 3018
2799 2805 2810 2816 2823 2830 2837 2847 2855 2863 2865 2871 2875 2882 2886 2894 2897 2901 2905 2915 2918 2922 2934 2941 2940 2953 2961 2969 2970 2971 2976 2985 2989 2994 2999 2995 3000 3003 3003 3006 3003 3004 3007 3009
2797 2803 2808 2814 2821 2829 2836 2843 2852 2857 2862 2865 2869 2869 2874 2881 2896 2903 2902 2908 2911 2917 2924 2932 2939 2948 2952 2957 2964 2967 2971 2968 2976 2980 2981 2987 2991 2994 2993 2994 2997 2996 2999 3000
2798 2803 2808 2813 2820 2828 2835 2840 2847 2851 2857 2862 2864 2867 2873 2876 2884 2891 2896 2902 2909 2909 2917 2924 2928 2938 2945 2950 2956 2959 2963 2966 2967 2974 2974 2978 2981 2982 2985 2986 2988 2989 2990 2991
2798 2804 2810 2815 2821 2827 2832 2840 2846 2850 2857 2863 2864 2863 2863 2872 2880 2884 2890 2900 2905 2912 2915 2918 2925 2932 2938 2944 2949 2952 2951 2954 2957 2964 2969 2970 2972 2974 2976 2978 2981 2983 2985 2986
2800 2806 2813 2818 2823 2827 2833 2840 2844 2849 2858 2857 2860 2863 2862 2866 2874 2878 2883 2891 2899 2906 2913 2917 2921 2925 2930 2934 2939 2942 2945 2947 2951 2957 2960 2961 2963 2964 2968 2971 2974 2976 2979 2981
2809 2809 2815 2819 2824 2830 2836 2839 2843 2846 2853 2858 2860 2861 2862 2865 2869 2873 2881 2887 2893 2901 2906 2910 2915 2921 2927 2928 2931 2937 2938 2941 2946 2948 2951 2953 2956 2960 2963 2966 2968 2971 2973 2975
2819 2817 2818 2821 2824 2828 2833 2838 2840 2845 2851 2855 2857 2858 2862 2864 2867 2873 2880 2885 2890 2897 2903 2907 2911 2915 2919 2920 2923 2926 2928 2932 2938 2941 2945 2948 2952 2955 2957 2961 2963 2964 2967 2969
2827 2826 2825 2826 2826 2829 2833 2838 2841 2843 2847 2851 2851 2856 2862 2864 2866 2871 2875 2880 2888 2893 2897 2901 2905 2909 2913 2917 2921 2923 2926 2929 2935 2939 2941 2944 2947 2950 2952 2954 2956 2957 2959 2960
2837 2836 2836 2835 2834 2833 2834 2838 2842 2844 2849 2849 2853 2857 2861 2864 2865 2870 2876 2881 2885 2891 2893 2897 2904 2905 2908 2914 2914 2919 2924 2927 2930 2934 2937 2939 2941 2944 2945 2947 2948 2949 2951 2951
2842 2843 2843 2844 2843 2842 2843 2848 2851 2851 2848 2849 2851 2853 2858 2864 2865 2871 2880 2882 2886 2889 2893 2897 2902 2906 2907 2910 2913 2917 2921 2924 2926 2928 2931 2933 2935 2937 2939 2940 2941 2941 2942 2943
2843 2844 2844 2845 2846 2847 2847 2848 2848 2849 2851 2852 2854 2858 2860 2865 2870 2874 2880 2884 2887 2891 2896 2901 2903 2905 2905 2908 2910 2914 2916 2918 2921 2922 2924 2927 2929 2931 2932 2933 2934 2935 2937 2938
2847 2846 2847 2849 2849 2849 2851 2851 2853 2855 2857 2858 2860 2863 2866 2869 2874 2879 2883 2884 2887 2890 2893 2898 2899 2899 2899 2902 2905 2908 2911 2913 2916 2918 2921 2922 2924 2925 2926 2928 2929 2930 2932 2933
2851 2851 2851 2851 2851 2851 2853 2853 2855 2855 2855 2857 2861 2865 2869 2874 2877 2879 2881 2882 2886 2887 2890 2892 2894 2893 2894 2897 2900 2904 2907 2909 2912 2915 2916 2918 2919 2920 2922 2923 2925 2927 2930 2931
2853 2852 2852 2852 2852 2852 2851 2852 2853 2855 2857 2861 2864 2867 2871 2873 2875 2877 2879 2881 2883 2886 2887 2888 2889 2889 2892 2895 2898 2901 2903 2905 2908 2910 2912 2914 2915 2917 2919 2921 2923 2925 2927 2929
2853 2853 2854 2854 2854 2854 2854 2854 2855 2857 2860 2862 2865 2869 2871 2873 2875 2876 2878 2879 2882 2883 2884 2883 2885 2886 2889 2892 2895 2897 2900 2902 2904 2906 2908 2910 2912 2915 2916 2918 2920 2922 2925 2926
2854 2854 2856 2857 2857 2857 2857 2857 2859 2860 2862 2864 2866 2868 2870 2871 2873 2874 2874 2876 2876 2879 2879 2879 2880 2884 2887 2890 2892 2895 2897 2899 2902 2904 2905 2907 2909 2911 2913 2915 2917 2919 2921 2922
2856 2857 2857 2858 2859 2860 2860 2860 2861 2863 2865 2866 2868 2869 2870 2871 2871 2872 2872 2873 2874 2875 2876 2877 2879 2882 2885 2888 2891 2893 2895 2897 2899 2900 2903 2905 2906 2908 2909 2911 2912 2914 2916 2917